Fort Indiantown Gap, PA

10:05 AM EST on January 21, 2018 (GMT -0500)
Muir Army Air Field

Weather History for KMUI - March, 2013

Change the Weather History Date:

Saturday, March 23, 2013

  Actual Average Record
Temperature  
Mean Temperature 38 °F -  
Max Temperature 45 °F 49 °F 79 °F (2012)
Min Temperature 31 °F 33 °F 21 °F (2004)
Degree Days  
Heating Degree Days 28    
Moisture  
Dew Point 18 °F    
Average Humidity 47    
Maximum Humidity 59    
Minimum Humidity 36    
Precipitation  
Precipitation 0.00 in - - ()
Sea Level Pressure  
Sea Level Pressure 29.97 in    
Wind  
Wind Speed 9 mph (WNW)    
Max Wind Speed 16 mph    
Max Gust Speed 24 mph    
Visibility 10 miles    
Events      
Averages and records for this station are not official NWS values.
T = Trace of Precipitation, MM = Missing Value Source: NWS Daily Summary

Daily Weather History Graph

Daily Weather History Graph

Search for Another Location

Airport or City:

Trip Planner

Search our weather history database for the weather conditions in past years. The results will help you decide how hot, cold, wet, or windy it might be!

Date:

Astronomy

Mar. 23, 2013 Rise Set
Actual Time 7:04 AM EDT 7:21 PM EDT
Civil Twilight 6:37 AM EDT 7:49 PM EDT
Nautical Twilight 6:05 AM EDT 8:21 PM EDT
Astronomical Twilight 5:32 AM EDT 8:53 PM EDT
Moon 3:45 PM EDT (3/23) 4:40 AM EDT (3/23)
Length of Visible Light 13h 11m
Length of Day
12h 17m
Waxing Gibbous, 85% of the Moon is Illuminated
Mar 23
Waxing Gibbous
Mar 27
Full
Apr 3
Last Quarter
Apr 10
New
Apr 18
First Quarter

Hourly Weather History & Observations

Time (EDT) Temp. Windchill Dew Point Humidity Pressure Visibility Wind Dir Wind Speed Gust Speed Precip Events Conditions
12:55 AM 31.8 °F 23.9 °F 18.1 °F 57% 29.98 in 10.0 mi West 9.2 mph - N/A   Scattered Clouds
1:55 AM 32.4 °F 26.9 °F 19.6 °F 59% 29.98 in 10.0 mi WNW 5.8 mph - N/A   Overcast
2:55 AM 32.5 °F 24.2 °F 19.8 °F 59% 29.96 in 10.0 mi WNW 10.4 mph - N/A   Overcast
3:55 AM 32.4 °F 24.0 °F 19.4 °F 59% 29.96 in 10.0 mi WNW 10.4 mph - N/A   Overcast
4:55 AM 32.4 °F 23.5 °F 18.9 °F 58% 29.96 in 10.0 mi WNW 11.5 mph - N/A   Overcast
5:55 AM 32.2 °F 24.4 °F 18.9 °F 58% 29.97 in 10.0 mi WNW 9.2 mph - N/A   Overcast
6:55 AM 31.8 °F 24.6 °F 18.5 °F 58% 29.97 in 10.0 mi West 8.1 mph - N/A   Mostly Cloudy
7:55 AM 32.4 °F 27.9 °F 18.3 °F 56% 29.98 in 10.0 mi WNW 4.6 mph - N/A   Clear
8:55 AM 34.5 °F 26.7 °F 18.3 °F 52% 29.98 in 10.0 mi West 10.4 mph - N/A   Clear
9:55 AM 37.8 °F 30.2 °F 18.3 °F 46% 29.98 in 10.0 mi West 11.5 mph - N/A   Partly Cloudy
10:55 AM 39.6 °F 32.1 °F 17.6 °F 41% 29.99 in 10.0 mi West 12.7 mph 24.2 mph N/A   Mostly Cloudy
11:55 AM 41.0 °F 34.3 °F 18.3 °F 40% 29.97 in 10.0 mi West 11.5 mph 18.4 mph N/A   Scattered Clouds
12:55 PM 42.8 °F 36.6 °F 18.1 °F 37% 29.96 in 10.0 mi NW 11.5 mph 20.7 mph N/A   Mostly Cloudy
1:55 PM 43.5 °F 37.5 °F 18.5 °F 37% 29.94 in 10.0 mi WNW 11.5 mph 23.0 mph N/A   Mostly Cloudy
2:55 PM 44.1 °F 39.5 °F 18.7 °F 36% 29.94 in 10.0 mi NW 8.1 mph 18.4 mph N/A   Overcast
3:55 PM 42.8 °F 35.1 °F 18.1 °F 37% 29.93 in 10.0 mi West 16.1 mph 21.9 mph N/A   Mostly Cloudy
4:55 PM 43.7 °F 37.7 °F 18.3 °F 36% 29.93 in 10.0 mi NW 11.5 mph 19.6 mph N/A   Mostly Cloudy
5:55 PM 43.2 °F 36.6 °F 18.9 °F 38% 29.94 in 10.0 mi West 12.7 mph 24.2 mph N/A   Scattered Clouds
6:55 PM 41.4 °F 35.2 °F 18.3 °F 40% 29.95 in 10.0 mi West 10.4 mph - N/A   Clear
7:55 PM 39.2 °F 33.6 °F 18.7 °F 44% 29.97 in 10.0 mi West 8.1 mph - N/A   Clear
8:55 PM 38.1 °F 31.7 °F 18.3 °F 45% 29.97 in 10.0 mi West 9.2 mph - N/A   Clear
9:55 PM 36.5 °F 30.3 °F 18.1 °F 47% 30.00 in 10.0 mi WSW 8.1 mph - N/A   Clear
10:55 PM 36.1 °F 30.6 °F 17.8 °F 47% 30.00 in 10.0 mi WNW 6.9 mph - N/A   Clear
11:55 PM 36.1 °F 32.3 °F 16.5 °F 45% 29.99 in 10.0 mi West 4.6 mph - N/A   Clear